Regional Weather Roundup
Issued by NWS Portland, ME

Home | Current Version | Previous Version | Text Only | Print | Product List | Glossary On
Versions: 1 2 3 4 5 6 7 8 9 10 11 12 13 14 15 16 17 18 19 20 21 22 23 24 25 26 27 28 29 30 31 32 33 34 35 36 37 38 39 40 41 42 43 44 45 46 47 48 49 50
000
ASUS41 KGYX 201710
RWRGYX
WEATHER ROUNDUP FOR MAINE AND NEW HAMPSHIRE
NATIONAL WEATHER SERVICE GRAY ME
1200 PM EST SAT DEC 20 2014

MEZ002-005-006-010-012-015-018-020-021-024-026-027-029-201800-
MAINE

CITY           SKY/WX    TMP DP  RH WIND       PRES   REMARKS
PORTLAND       MOSUNNY   32  22  66 E7        30.30F
SANFORD        MOSUNNY   28  18  64 NE6       30.29F
BAR HARBOR     CLOUDY    27  23  86 N14       30.32F WCI  15
WISCASSET      SUNNY     32  20  61 VRB3      30.31F
ROCKLAND       PTSUNNY   27  21  80 NE13G18   30.31F WCI  16
FRYEBURG       SUNNY     30  17  58 E5        30.28F
LEWISTONAUBURN SUNNY     28  18  64 NE5       30.28F
AUGUSTA        SUNNY     25  17  72 NE9       30.31F
WATERVILLE     CLOUDY    25  16  68 NE6       30.29F
BANGOR         CLOUDY    22  17  81 N10       30.34F WCI  11
GREENVILLE       N/A     19  14  81 NW3       30.23F
MILLINOCKET    CLOUDY    19  15  84 N7        30.36F FOG
HOULTON        CLOUDY    17  13  84 N5        30.32F
PRESQUE ISLE   CLOUDY    12  12 100 CALM      30.34S VSB 1/2
FRENCHVILLE    CLOUDY    15  11  83 E5        30.29F FOG
CARIBOU        LGT SNOW  16  11  80 E3        30.33S
$$

NHZ002-005-008-009-011-012-014-201800-
NEW HAMPSHIRE

CITY           SKY/WX    TMP DP  RH WIND       PRES   REMARKS
PORTSMOUTH     PTSUNNY   32  22  65 N9        30.27F
ROCHESTER      SUNNY     31  19  61 VRB5      30.27F
NASHUA         PTSUNNY   32  21  64 NW8       30.28F
MANCHESTER     PTSUNNY   32  19  58 N9        30.26F
CONCORD        SUNNY     32  19  58 NE6       30.27F
LACONIA        SUNNY     30  18  59 NE5       30.25F
PLYMOUTH       FAIR      29  21  70 CALM      30.27F
BERLIN         SUNNY     20  14  77 CALM      30.24F
WHITEFIELD     SUNNY     22  16  78 CALM      30.24F
JAFFREY        SUNNY     30  17  58 VRB3      30.23F
KEENE          SUNNY     30  18  59 CALM      30.26F
LEBANON        SUNNY     25  16  68 CALM      30.26F
MT WASHINGTON  MOSUNNY   25   5  42 SE15        N/A  WCI  12
$$

VTZ005-007-008-201800-
VERMONT

CITY           SKY/WX    TMP DP  RH WIND       PRES   REMARKS
ST JOHNSBURY     N/A     23  14  68 MISG      30.26F
MONTPELIER     SUNNY     19  14  81 CALM      30.27F
BURLINGTON     MOSUNNY   24  14  65 CALM      30.30F
$$

MAZ007-012-024-CTZ003-RIZ002-NYZ038-NYZ072-201800-
SOUTHERN NEW ENGLAND AND NY

CITY           SKY/WX    TMP DP  RH WIND       PRES   REMARKS
BOSTON         CLOUDY    33  24  69 N10       30.27F
WORCESTER      MOSUNNY   31  21  66 NE6       30.22S
NANTUCKET      CLOUDY    41  32  70 N10       30.21F
PROVIDENCE     CLOUDY    34  23  64 N9        30.25F
HARTFORD       CLOUDY    30  18  60 N6        30.27F
ALBANY         PTSUNNY   28  17  63 N3        30.30F
NEW YORK CITY  CLOUDY    31  20  63 NW9       30.29F
$$

ANZ081-ANZ082-ANZ150-NHZ014-MEZ023>029-201800-
COASTAL MARINE OBSERVATIONS

STATION/POSITION TIME  TEMP    WIND        PRES    WAVE
                       AIR SEA DIR/SP/G            HT/PER
                 (UTC) (F)     (DEG/KT/KT) (MB)    (FT/S)
MOUNT DESERT ROC 1700   29                 1024.8F
MATINICUS ROCK   1600           30/  9/ 13 1026.2R
PORTLAND WX BUOY 1650   28 43   40/  8/ 10 1025.8F   2/ 4
WELLS            1600   29 40  360/  8/ 12 1025.6F
ISLE OF SHOALS   1600   30      10/ 21/ 24 1024.8F
JEFFREYS LEDGE   1621      49                N/A     3/ 5
CASHES LEDGE BUO 1650   35 48   30/ 19/ 23 1023.8F   3/ 6
$$

.............KEY..............
   WCI - WIND CHILL
   TC  - TEMPERATURE IN CELSIUS
   VSB - VISIBILITY IN MILES
   HX  - HEAT INDEX
   FAIR- INDICATES FEW OR NO CLOUDS BELOW 12,000 FT, WITH NO
         SIGNIFICANT WEATHER AND/OR OBSTRUCTIONS TO VISIBILITY.




USA.gov is the U.S. government's official web portal to all federal, state and local government web resources and services.